Simultaneous Nadir Overpasses (SNOs) Predictions

Prediction of SNOs between LANDSAT-8 and METOP-A Satellite Orbit:

Table of predicted SNOs for the next 14.0 days since TLE Epoch: 1/19/2019
Index Date (LANDSAT-8) Time (LANDSAT-8) Lat,Lon (LANDSAT-8) SZA (LANDSAT-8 ) Date (METOP-A) Time (METOP-A) Lat,Lon (METOP-A) SZA (METOP-A ) Distance(km) Time Diff (sec)
1 01/21/2019 10:05:30 -81.44,-106.09 76.53 01/21/2019 10:04:52 -81.44,-106.03 76.54 1.11 38
2 01/21/2019 10:54:55 81.44, 61.62 103.48 01/21/2019 10:55:31 81.44, 61.51 103.48 1.84 36
3 01/24/2019 05:39:44 -81.43, -39.84 77.22 01/24/2019 05:39:06 -81.43, -39.78 77.23 1.27 38
4 01/24/2019 06:29:10 81.43, 127.84 102.78 01/24/2019 06:29:46 81.44, 127.75 102.79 1.63 36
5 01/27/2019 01:13:58 -81.44, 26.77 77.91 01/27/2019 01:13:20 -81.44, 26.85 77.91 1.33 38
6 01/27/2019 02:03:24 81.44,-165.57 102.09 01/27/2019 02:04:00 81.44,-165.62 102.10 0.93 36
7 01/29/2019 20:48:12 -81.44, 93.35 78.64 01/29/2019 20:47:34 -81.44, 93.46 78.65 1.86 38
8 01/29/2019 21:37:38 81.44, -99.00 101.36 01/29/2019 21:38:14 81.44, -99.01 101.37 0.55 36
9 02/01/2019 16:22:26 -81.43, 159.52 79.46 02/01/2019 16:21:48 -81.44, 159.66 79.46 2.29 38




NCC Satellite Simultaneous Nadir Overpasses (SNOs) Prediction Service
